Voltar ao catálogo

COSMOS 198

AtivoMilitarLEO
NORAD 3081·PAYLOAD·🇷🇺 Russia

Lançado Dec 27, 1967 de Baikonur Cosmodrome

Loading…

Próximas Passagens (próximas 24 horas)

TLE

AtualizadoSource: Space-Track

Época: Sep 14, 2026, 08:54 UTC

1 03081U 67127A   26257.37127701 -.00000087  00000-0  23736-5 0  9997
2 03081  65.1431  48.3470 0019857  13.1296 347.0283 13.93397790986003

Acompanhe COSMOS 198 em tempo real com AllMySat

Download on the App Store